Carlsbad, NM

4:25 PM MDT on September 24, 2017 (GMT -0600)
Cavern City

Weather History for KCNM - December, 2012

Change the Weather History Date:

Friday, December 7, 2012

  Actual Average Record
Temperature  
Mean Temperature 53 °F -  
Max Temperature 69 °F 59 °F 78 °F (1987)
Min Temperature 37 °F 30 °F 15 °F (2005)
Degree Days  
Heating Degree Days 12    
Growing Degree Days 3 (Base 50)    
Moisture  
Dew Point 25 °F    
Average Humidity 36    
Maximum Humidity 53    
Minimum Humidity 20    
Precipitation  
Precipitation 0.00 in - - ()
Sea Level Pressure  
Sea Level Pressure 29.79 in    
Wind  
Wind Speed 7 mph (NW)    
Max Wind Speed 12 mph    
Max Gust Speed -    
Visibility 10 miles    
Events      
Averages and records for this station are not official NWS values.
T = Trace of Precipitation, MM = Missing Value Source: NWS Daily Summary

Daily Weather History Graph

Daily Weather History Graph

Search for Another Location

Airport or City:

Trip Planner

Search our weather history database for the weather conditions in past years. The results will help you decide how hot, cold, wet, or windy it might be!

Date:

Astronomy

Dec. 07, 2012 Rise Set
Actual Time 6:45 AM MST 4:51 PM MST
Civil Twilight 6:18 AM MST 5:18 PM MST
Nautical Twilight 5:48 AM MST 5:49 PM MST
Astronomical Twilight 5:18 AM MST 6:19 PM MST
Moon 12:26 AM MST (12/7) 12:33 PM MST (12/7)
Length of Visible Light 11h 00m
Length of Day
10h 06m
Last Quarter, 38% of the Moon is Illuminated
Dec 7
Last Quarter
Dec 13
New
Dec 19
First Quarter
Dec 28
Full
Jan 4
Last Quarter

Hourly Weather History & Observations

Time (MST) Temp. Windchill Dew Point Humidity Pressure Visibility Wind Dir Wind Speed Gust Speed Precip Events Conditions
12:53 AM 43.0 °F 39.5 °F 23.0 °F 45% 29.77 in 10.0 mi North 5.8 mph - N/A   Clear
1:53 AM 43.0 °F 39.5 °F 21.9 °F 43% 29.76 in 10.0 mi NNW 5.8 mph - N/A   Clear
2:53 AM 37.9 °F 33.5 °F 21.9 °F 53% 29.76 in 10.0 mi WNW 5.8 mph - N/A   Clear
3:53 AM 39.0 °F 35.7 °F 21.0 °F 49% 29.76 in 10.0 mi NW 4.6 mph - N/A   Clear
4:53 AM 41.0 °F 35.8 °F 21.9 °F 47% 29.79 in 10.0 mi NW 8.1 mph - N/A   Clear
5:53 AM 39.9 °F 32.9 °F 23.0 °F 51% 29.83 in 10.0 mi NW 11.5 mph - N/A   Clear
6:53 AM 39.0 °F 32.8 °F 21.9 °F 50% 29.86 in 10.0 mi WNW 9.2 mph - N/A   Clear
7:53 AM 46.9 °F - 25.0 °F 42% 29.84 in 10.0 mi NW 6.9 mph - N/A   Clear
8:53 AM 48.0 °F - 25.0 °F 41% 29.87 in 10.0 mi North 5.8 mph - N/A   Clear
9:53 AM 51.1 °F - 26.1 °F 38% 29.87 in 10.0 mi North 9.2 mph - N/A   Clear
10:53 AM 55.0 °F - 26.1 °F 33% 29.84 in 10.0 mi NNE 5.8 mph - N/A   Clear
11:53 AM 59.0 °F - 26.1 °F 28% 29.79 in 10.0 mi NNE 6.9 mph - N/A   Clear
12:53 PM 64.0 °F - 26.1 °F 24% 29.75 in 10.0 mi NE 5.8 mph - N/A   Clear
1:53 PM 66.0 °F - 26.1 °F 22% 29.73 in 10.0 mi Calm Calm - N/A   Clear
2:53 PM 69.1 °F - 26.1 °F 20% 29.72 in 10.0 mi ESE 6.9 mph - N/A   Clear
3:53 PM 66.9 °F - 26.1 °F 21% 29.72 in 10.0 mi ESE 9.2 mph - N/A   Clear
4:53 PM 63.0 °F - 26.1 °F 25% 29.73 in 10.0 mi South 9.2 mph - N/A   Clear
5:53 PM 57.2 °F - 24.8 °F 29% 29.83 in 10.0 mi SW 8.1 mph - N/A   Clear
6:53 PM 57.0 °F - 24.1 °F 28% 29.78 in 10.0 mi WSW 11.5 mph - N/A   Clear
7:53 PM 55.0 °F - 25.0 °F 31% 29.79 in 10.0 mi WSW 11.5 mph - N/A   Clear
8:53 PM 53.1 °F - 25.0 °F 34% 29.81 in 10.0 mi West 8.1 mph - N/A   Clear
9:53 PM 53.1 °F - 27.0 °F 37% 29.80 in 10.0 mi WSW 10.4 mph - N/A   Clear
10:53 PM 53.1 °F - 27.0 °F 37% 29.80 in 10.0 mi West 8.1 mph - N/A   Clear
11:53 PM 50.0 °F - 27.0 °F 41% 29.79 in 10.0 mi Calm Calm - N/A   Clear